Location: Dalton
(34.7700°N, 84.9700°W)
Time: 13:07:46
(UTC-04:00)

Envisat - Pass Details

Date: 10 October 2017
Orbit: 764 x 766 km, 98.2° (Epoch: 22 October)

Event Time Altitude Azimuth Distance (km) Brightness Sun altitude
Exits shadow 21:07:41 31° 24° (NNE) 1,315 4.0 -24.7°
Drops below altitude 10° 21:10:38 10° 1° (N) 2,306 5.5 -25.3°
Sets 21:13:01 0° 356° (N) 3,236 6.4 -25.8°
